RH
2 2 2 2 2 2 2 2 2 2 2 3 6 9 14 11 8 8 8 7 6 7 14 9 7 6 4 3 3 4 4 4 4
2 2 2 2 2 2 2 2 2 2 2 3 6 9 15 10 8 8 8 6 6 8 15 7 5 4 2 2 2 3 3 3 4
2 2 2 2 2 2 2 2 2 2 2 3 7 10 15 8 8 8 7 6 7 9 16 6 3 2 2 2 2 2 2 3 4
2 2 2 2 2 2 2 2 2 2 2 3 8 12 14 9 8 7 7 6 7 9 17 5 2 2 2 2 2 2 3 4 6
2 2 2 2 2 3 2 2 2 2 2 4 9 14 9 9 8 7 7 7 7 10 18 4 2 2 2 2 2 2 3 4 6
4 2 2 2 4 3 2 2 2 2 2 4 10 16 8 10 8 7 6 7 8 9 17 4 2 2 2 2 2 2 3 4 6
8 2 2 3 4 4 3 2 2 2 2 5 11 15 9 10 7 7 6 6 8 8 17 4 2 2 2 2 2 2 3 4 5
12 8 3 2 3 5 6 4 2 2 2 6 14 9 9 8 7 7 6 6 9 9 16 4 2 2 2 2 2 2 3 3 4
13 14 10 5 4 4 4 4 2 2 3 9 16 8 9 8 9 8 6 6 9 9 12 5 2 2 2 2 2 2 2 3 3
13 16 14 12 8 9 5 3 3 2 6 14 11 9 10 10 11 8 6 9 9 9 10 7 2 2 2 2 2 2 2 3 3
15 16 16 14 12 9 4 2 2 3 10 15 10 11 11 11 10 6 8 10 9 9 9 11 2 2 2 2 2 2 2 3 3
18 19 18 14 11 7 2 2 2 7 15 12 12 14 13 12 9 6 8 10 10 9 9 15 2 2 2 2 2 3 3 3 3
38 27 36 16 9 4 2 2 7 12 19 12 13 14 14 13 8 6 8 11 10 9 9 17 4 2 2 2 3 3 3 3 3
45 18 25 18 7 3 2 4 11 14 18 12 14 14 14 14 11 7 7 9 10 9 9 18 8 2 2 2 3 3 3 4 4
54 43 21 21 7 4 6 9 12 19 16 11 15 14 14 16 14 11 8 7 9 10 8 14 13 2 2 2 3 3 3 4 4
81 41 20 24 15 7 11 13 13 21 14 11 15 14 13 16 16 14 12 8 7 9 9 10 18 4 2 2 3 3 3 3 4
89 57 20 25 23 15 13 14 17 23 13 11 14 15 13 14 16 16 14 11 7 8 10 9 22 9 2 2 3 3 3 3 3
58 90 27 23 26 21 18 18 21 24 18 10 12 14 13 12 15 17 16 14 9 7 10 9 22 16 5 2 3 3 4 3 2
31 85 69 22 29 24 22 21 22 24 24 14 9 11 12 11 13 17 17 14 10 7 11 10 21 24 12 3 3 3 4 4 3
10 40 85 38 25 29 26 24 25 24 24 13 9 9 11 11 14 18 18 14 11 7 12 11 18 28 20 8 3 3 4 4 4
Wind_Speed
23 23 24 26 24 22 22 20 17 13 10 12 10 11 11 9 8 8 9 11 13 11 12 15 15 17 18 18 18 20 21 21 22
25 25 26 27 25 23 23 21 18 14 11 12 11 13 11 9 8 7 8 10 11 10 12 14 15 16 17 18 18 19 20 21 21
26 27 27 28 27 25 23 22 19 15 12 13 12 14 12 10 8 7 7 9 10 9 11 12 15 16 16 17 17 19 19 20 21
27 28 29 29 29 28 24 22 20 16 14 14 14 15 12 11 8 6 6 8 9 8 10 12 13 14 15 16 17 18 18 19 21
29 29 30 30 30 29 26 23 20 17 16 16 15 16 14 11 8 6 5 7 8 7 10 12 12 13 15 16 17 17 18 19 20
30 30 31 31 30 29 27 26 23 20 18 18 18 17 14 11 8 6 4 6 8 6 9 11 11 12 14 15 16 16 18 19 19
33 31 32 32 31 28 26 25 25 24 21 20 19 17 15 12 9 6 3 5 7 7 8 10 10 11 13 14 15 16 17 18 19
35 32 31 31 31 29 26 25 24 25 24 21 21 18 15 12 10 7 3 3 5 7 7 9 8 10 11 13 15 15 16 18 18
36 34 33 32 31 29 28 27 26 26 25 23 23 20 16 13 11 7 4 2 4 6 5 7 7 8 10 12 14 15 16 17 18
39 37 35 34 32 30 29 29 29 28 26 26 24 20 16 14 10 7 6 1 3 5 3 5 5 6 8 10 12 14 15 17 18
41 38 37 35 34 33 32 32 31 30 28 28 25 21 17 13 10 8 7 2 3 4 2 3 3 4 6 8 10 12 14 16 17
40 40 37 36 35 35 34 33 33 31 30 29 26 22 18 14 11 10 8 4 2 3 2 2 0 1 3 6 8 10 13 14 16
42 44 41 37 36 36 36 36 34 32 32 30 27 23 19 15 12 10 9 5 3 4 3 2 2 1 1 3 5 7 10 12 15
45 43 44 40 38 38 38 37 35 34 33 31 28 24 20 16 13 11 9 7 5 5 5 4 3 4 2 1 3 5 7 10 12
48 47 45 42 41 41 40 38 37 36 35 33 29 25 22 18 15 12 10 9 7 7 6 7 5 6 5 3 1 2 4 7 10
51 50 48 45 44 44 42 40 39 37 36 34 31 28 24 20 17 14 12 10 9 8 8 9 7 7 8 5 4 2 1 4 7
55 52 51 47 46 46 44 42 40 39 37 36 34 29 26 23 20 16 14 12 11 11 10 11 9 8 10 8 7 4 2 2 4
59 57 54 52 48 47 45 43 42 40 39 37 36 32 28 26 22 18 16 15 14 13 12 12 13 9 11 11 9 8 6 4 3
57 59 57 55 52 49 48 46 45 44 41 40 36 35 31 28 24 21 18 18 17 16 15 14 15 12 11 13 12 11 9 8 6
58 60 60 59 55 53 51 48 47 45 43 40 39 36 34 30 27 24 21 20 20 19 17 16 16 14 13 14 14 13 12 11 10
Wind_Direction
185 185 184 186 184 182 180 181 181 172 167 161 154 160 153 132 112 89 65 54 46 50 47 34 32 30 27 28 29 29 29 25 22
185 186 185 187 186 183 183 182 181 177 173 169 167 166 163 141 120 94 67 53 46 53 42 31 29 30 28 30 31 31 27 25 22
190 188 188 187 187 185 184 184 182 182 180 179 176 169 167 149 128 103 70 52 44 51 37 29 29 32 32 32 30 29 25 26 24
193 191 190 188 190 191 188 189 186 189 188 187 182 173 168 156 137 112 74 51 39 48 32 28 29 33 34 32 29 28 26 28 26
195 193 192 192 192 195 195 196 192 195 194 192 187 177 171 162 145 124 82 52 34 44 29 26 30 35 33 30 25 27 27 27 27
196 194 194 194 191 194 198 199 198 197 196 196 189 182 175 161 151 134 96 56 33 42 27 26 32 36 34 29 27 29 29 27 28
197 195 197 195 193 193 196 198 200 200 199 197 191 183 177 165 160 148 121 60 31 27 25 26 36 39 36 31 30 30 32 30 29
200 197 198 200 198 197 197 200 199 199 200 197 191 184 177 170 165 166 149 83 27 18 22 26 37 39 37 33 35 32 35 33 32
202 200 202 202 199 201 201 202 201 199 198 198 191 184 177 171 171 175 167 124 18 6 20 27 37 40 36 36 39 35 37 37 34
204 202 205 206 204 205 205 203 203 201 197 193 190 185 180 176 178 182 175 165 356 351 13 27 44 42 39 35 40 39 39 41 39
206 203 205 207 208 206 205 202 201 199 196 192 190 186 185 185 185 187 182 200 340 340 352 19 50 47 43 38 40 43 41 41 41
207 206 206 207 206 207 203 199 198 198 196 195 191 191 190 191 194 194 199 209 312 327 324 345 5 70 48 41 43 44 45 43 46
209 206 209 208 206 206 202 198 196 198 197 197 195 196 196 195 197 203 210 222 284 318 296 275 256 225 50 39 46 46 50 48 45
210 208 206 207 204 203 200 199 199 199 198 199 200 200 201 201 202 207 217 229 258 301 280 253 260 229 234 335 41 44 50 52 50
208 209 210 206 203 202 202 201 204 201 201 202 203 204 205 207 209 213 222 232 250 280 277 246 259 232 236 244 282 31 49 52 47
206 207 211 207 206 205 206 205 206 203 204 205 208 210 211 212 215 219 229 239 248 264 278 247 256 238 233 236 249 259 359 42 43
207 208 210 208 208 209 210 208 207 206 207 208 210 214 216 217 220 225 233 241 251 258 271 251 249 247 234 234 240 248 267 349 18
209 210 209 209 208 209 209 208 208 210 211 212 214 217 219 222 225 229 236 243 252 255 265 254 243 250 242 236 239 247 260 277 319
211 212 210 212 208 210 209 209 210 212 215 216 216 218 222 223 228 235 239 244 251 254 259 255 243 249 247 239 237 243 252 266 277
212 213 212 213 210 211 211 212 213 215 218 219 219 220 224 226 231 238 243 248 254 254 257 258 245 251 253 245 239 243 248 259 266